Regional Weather Roundup
Issued by NWS Cleveland, OH

Home | Current Version | Previous Version | Text Only | Print | Product List | Glossary Off
Versions: 1 2 3 4 5 6 7 8 9 10 11 12 13 14 15 16 17 18 19 20 21 22 23 24 25 26 27 28 29 30 31 32 33 34 35 36 37 38 39 40 41 42 43 44 45 46 47 48 49 50

510
ASUS41 KCLE 260412
RWRCLE
OHIO REGIONAL WEATHER ROUNDUP
NATIONAL WEATHER SERVICE WILMINGTON, OH
1100 PM EST SAT FEB 25 2017

NOTE: "FAIR" INDICATES FEW OR NO CLOUDS BELOW 12,000 FEET WITH NO
SIGNIFICANT WEATHER AND/OR OBSTRUCTIONS TO VISIBILITY.

OHZ001>008-015>018-024>027-034-035-043-044-260500-
   NORTHWEST OHIO

CITY           SKY/WX    TMP DP  RH WIND       PRES   REMARKS
DEFIANCE       CLOUDY    25  17  72 W10G20    30.01R WCI  15
FINDLAY        CLOUDY    28  17  63 W14       29.99R WCI  17
TOLEDO EXPRESS CLOUDY    25  16  68 W15       29.99R WCI  13
TOLEDO EXEC    CLOUDY    27  14  58 W16       30.00R WCI  15
LIMA           CLOUDY    27  20  75 NW15      29.99R WCI  15
$$

OHZ009>014-019>023-028>033-038-089-260500-
   NORTHEAST OHIO

CITY           SKY/WX    TMP DP  RH WIND       PRES   REMARKS
CLE-HOPKINS    LGT SNOW  28  18  66 W17       29.99R WCI  16
CLE-LAKEFRONT  FLURRIES  29  17  61 W24G31    29.96R WCI  15
CUY CO. ARPT   CLOUDY    30  18  59 W17G29    29.95R WCI  18
LORAIN-ELYRIA  FLURRIES  26  18  71 W12       29.99R WCI  16
ASHTABULA      FLURRIES  26  22  84 W10G18    29.94R WCI  16
AKRON-CANTON   FLURRIES  27  15  61 W16G22    29.96R WCI  15
WOOSTER        FLURRIES  26  17  68 W12       29.98R WCI  16
MANSFIELD      CLOUDY    26  17  68 W16G23    29.96R WCI  14
YOUNGSTOWN     FLURRIES  27  14  58 W15G23    29.93R WCI  15
$$

OHZ042-051>053-060>062-070>072-077>081-260500-
  SOUTHWEST OHIO

CITY           SKY/WX    TMP DP  RH WIND       PRES   REMARKS
CINC-COVINGTON FAIR      28  17  63 SW6       30.05R WCI  22
CINC-LUNKEN    FAIR      28  19  69 SW7       30.09R WCI  21
HAMILTON       FAIR      28  18  66 SW5       30.08R WCI  23
DAYTON         CLOUDY    28  19  69 W7        30.03R WCI  21
WRIGHT-PAT AFB CLOUDY    29  19  63 W8        30.03R WCI  22
DAYTON GENERAL FAIR      29  18  63 SW10      30.03R WCI  20
WILMINGTON     MOCLDY    30  16  56 W12       30.03R WCI  20
$$

OHZ036-037-039>041-045>050-054>059-063>069-073>076-082>088-260500-
  CENTRAL AND SOUTHEAST OHIO

CITY           SKY/WX    TMP DP  RH WIND       PRES   REMARKS
COLUMBUS       CLOUDY    31  19  61 W8        30.02S WCI  23
OSU AIRPORT    CLOUDY    29  19  66 W12       30.02R WCI  19
BOLTON FIELD   CLOUDY    29  20  66 W12       30.03R WCI  20
RICKENBACK AFB CLOUDY    29  21  71 W6        30.04R WCI  23
NEWARK         CLOUDY    30  16  56 W16G23    30.01S WCI  19
MARION         CLOUDY    28  19  69 W9        30.00R WCI  19
LANCASTER      CLOUDY    31  21  66 W6        30.03S WCI  25
ZANESVILLE     CLOUDY    29  15  56 W12       30.02R WCI  19
NEW PHILLY     CLOUDY    28  18  66 W10G20    30.01R WCI  19
$$




USA.gov is the U.S. government's official web portal to all federal, state and local government web resources and services.